Flight Information

DEPARTURE
CAMARILLO, CA
Elevation:
76
Runways:
8/26 - 6013x150 - ASPH-CONC-G
Active PE Departure:
26
Current PE ATIS:
T
Altimeter:
30.13
Remarks:
ATIS:
126.025 805-484-3351
Clearance Delivery:
121.8
Ground:
121.8
Tower:
128.2
DESTINATION
,
Elevation:
TPA:
1000 (est.)


6822.3 NM73° True-14° Var58° HDG

Flight Plan:
(click to file on line)

1. Type
2. Aircraft Identification
3. Aircraft Type / Special Equipment
4. True Airspeed
kts
5. Departure Airport
(ICAO code)
6. Arriving Airport
(ICAO code)
7. Cruising Altitude
ft
8. Alternate Airport
(ICAO code)
9. Route of Flight
10. Remarks


00:00:00 Departure ATIS: Destination ATIS:

Clearance Limit:
Route:
Altitude: Expect in minutes
Frequency:
Transponder: (7500 Hijack / 7600 Lost Comms / 7700 Emergency)


KCMA 042248Z 00000KT 10SM OVC015 17/14 A3006 RMK AO2 T01670144
Time: 2022-12-04T22:48:00Z
1670650492
Winds: calm
Visibility: 10.0 sm
Clouds (AGL): OVC 1500
Temperature: 16.7 C
Dew Point: 14.4 C
Pressure: 30.059055 in Hgbr


Notes:

Data extracted from FAA Digital Chart Supplement. Effective: 0901Z Thursday, 27 JAN 2022 to 0900z Thursday, 24 MAR 2022
Current ATIS data is provided courtisy of PilotEdge.